| time (UTC) | temp F | wind direction | speed MPH | gust MPH | rain 1hr in | rain 24hr in | rain mn in | humidity % | barometer mb |
| 20260510212844 | 73 | 57 | 6.0 | 5.0 | 0.00 | 0.00 | 0.00 | 61 | 1016.5 |
| 20260510212249 | 73 | 190 | 2.0 | 5.0 | 0.00 | 0.00 | 0.00 | 48 | 1010.2 |
| 20260510212242 | 51 | 355 | 0.0 | 11.0 | 0.00 | 0.80 | 0.68 | 94 | 1015.8 |
| 20260510211346 | 74 | 35 | 9.0 | 5.0 | 0.00 | 0.00 | 0.00 | 60 | 1016.5 |
| 20260510205845 | 76 | 62 | 3.0 | 5.0 | 0.00 | 0.00 | 0.00 | 64 | 1016.2 |
| 20260510204344 | 76 | 355 | 6.0 | 5.0 | 0.00 | 0.00 | 0.00 | 65 | 1016.1 |
| 20260510202844 | 78 | 28 | 12.0 | 5.0 | 0.00 | 0.00 | 0.00 | 62 | 1016.4 |
| 20260510201343 | 79 | 355 | 3.0 | 5.0 | 0.00 | 0.00 | 0.00 | 61 | 1016.2 |
| 20260510195845 | 80 | 342 | 3.0 | 5.0 | 0.00 | 0.00 | 0.00 | 55 | 1016.3 |
| 20260510194347 | 79 | 229 | 1.0 | 5.0 | 0.00 | 0.00 | 0.00 | 55 | 1016.4 |
| 20260510192844 | 78 | 66 | 0.0 | 5.0 | 0.00 | 0.00 | 0.00 | 55 | 1016.3 |
| 20260510191343 | 78 | 32 | 0.0 | 5.0 | 0.00 | 0.00 | 0.00 | 54 | 1016.4 |
| 20260510185845 | 79 | 61 | 3.0 | 5.0 | 0.00 | 0.00 | 0.00 | 54 | 1016.4 |
| 20260510184343 | 79 | 304 | 0.0 | 5.0 | 0.00 | 0.00 | 0.00 | 57 | 1016.3 |
| 20260510182845 | 79 | 325 | 1.0 | 5.0 | 0.00 | 0.00 | 0.00 | 57 | 1016.2 |
| 20260510181344 | 77 | 253 | 1.0 | 5.0 | 0.00 | 0.00 | 0.00 | 58 | 1016.2 |
| 20260510175845 | 77 | 63 | 5.0 | 5.0 | 0.00 | 0.00 | 0.00 | 57 | 1016.4 |
| 20260510174344 | 77 | 86 | 1.0 | 5.0 | 0.00 | 0.00 | 0.00 | 55 | 1016.5 |
| 20260510172844 | 76 | 184 | 0.0 | 5.0 | 0.00 | 0.00 | 0.00 | 58 | 1016.6 |
| 20260510171344 | 75 | 58 | 4.0 | 5.0 | 0.00 | 0.00 | 0.00 | 62 | 1016.8 |
| 20260510165844 | 75 | 43 | 4.0 | 5.0 | 0.00 | 0.00 | 0.00 | 62 | 1016.9 |
| 20260510164343 | 75 | 309 | 1.0 | 5.0 | 0.00 | 0.00 | 0.00 | 59 | 1017.0 |
| 20260510162843 | 75 | 24 | 0.0 | 5.0 | 0.00 | 0.00 | 0.00 | 61 | 1016.9 |
| 20260510161344 | 75 | 61 | 6.0 | 5.0 | 0.00 | 0.00 | 0.00 | 59 | 1016.7 |
| 20260510155843 | 76 | 325 | 3.0 | 5.0 | 0.00 | 0.00 | 0.00 | 59 | 1016.7 |
| 20260510154344 | 77 | 44 | 1.0 | 5.0 | 0.00 | 0.00 | 0.00 | 60 | 1016.5 |
| 20260510152844 | 77 | 50 | 1.0 | 5.0 | 0.00 | 0.00 | 0.00 | 52 | 1016.3 |
| 20260510145843 | 76 | 278 | 3.0 | 5.0 | 0.00 | 0.00 | 0.00 | 54 | 1015.8 |
| 20260510144347 | 76 | 67 | 0.0 | 5.0 | 0.00 | 0.00 | 0.00 | 54 | 1015.6 |
| 20260510142844 | 75 | 174 | 2.0 | 5.0 | 0.00 | 0.00 | 0.00 | 60 | 1015.4 |
| 20260510141343 | 73 | 194 | 3.0 | 5.0 | 0.00 | 0.00 | 0.00 | 60 | 1015.6 |
| 20260510135843 | 72 | 179 | 4.0 | 5.0 | 0.00 | 0.00 | 0.00 | 61 | 1015.5 |
| 20260510134343 | 70 | 200 | 1.0 | 5.0 | 0.00 | 0.00 | 0.00 | 65 | 1015.6 |
| 20260510132846 | 68 | 272 | 0.0 | 5.0 | 0.00 | 0.00 | 0.00 | 70 | 1015.6 |
| 20260510131343 | 67 | 191 | 0.0 | 5.0 | 0.00 | 0.00 | 0.00 | 73 | 1015.8 |
| 20260510125844 | 65 | 189 | 2.0 | 5.0 | 0.00 | 0.00 | 0.00 | 73 | 1015.5 |
| 20260510124343 | 63 | 173 | 1.0 | 5.0 | 0.00 | 0.00 | 0.00 | 77 | 1015.3 |
| 20260510122844 | 61 | 167 | 3.0 | 5.0 | 0.00 | 0.00 | 0.00 | 79 | 1015.3 |
| 20260510121343 | 60 | 161 | 0.0 | 5.0 | 0.00 | 0.00 | 0.00 | 79 | 1015.3 |
| 20260510115843 | 59 | 181 | 1.0 | 5.0 | 0.00 | 0.00 | 0.00 | 78 | 1014.8 |
| 20260510114416 | 58 | 275 | 0.0 | 5.0 | 0.00 | 0.00 | 0.00 | 80 | 1014.6 |
| 20260510114343 | 58 | 275 | 0.0 | 5.0 | 0.00 | 0.00 | 0.00 | 80 | 1014.6 |
| 20260510112844 | 57 | 9 | 0.0 | 5.0 | 0.00 | 0.00 | 0.00 | 81 | 1014.2 |
| 20260510111344 | 56 | 9 | 0.0 | 5.0 | 0.00 | 0.00 | 0.00 | 81 | 1014.2 |
| 20260510105844 | 56 | 180 | 0.0 | 5.0 | 0.00 | 0.00 | 0.00 | 82 | 1014.2 |
| 20260510104351 | 57 | 180 | 0.0 | 5.0 | 0.00 | 0.00 | 0.00 | 80 | 1014.2 |
| 20260510101344 | 58 | 349 | 1.0 | 5.0 | 0.00 | 0.00 | 0.00 | 76 | 1014.3 |
| 20260510094348 | 59 | 342 | 3.0 | 5.0 | 0.00 | 0.00 | 0.00 | 76 | 1014.1 |
| 20260510092846 | 59 | 187 | 0.0 | 5.0 | 0.00 | 0.00 | 0.00 | 73 | 1013.3 |
| 20260510091347 | 59 | 187 | 1.0 | 5.0 | 0.00 | 0.00 | 0.00 | 73 | 1013.1 |
| 20260510084343 | 61 | 178 | 0.0 | 5.0 | 0.00 | 0.00 | 0.00 | 67 | 1012.7 |
| 20260510082844 | 62 | 170 | 0.0 | 5.0 | 0.00 | 0.00 | 0.00 | 66 | 1012.7 |
| 20260510081344 | 63 | 198 | 1.0 | 5.0 | 0.00 | 0.00 | 0.00 | 65 | 1012.4 |
| 20260510075844 | 62 | 179 | 2.0 | 5.0 | 0.00 | 0.00 | 0.00 | 65 | 1012.4 |
| 20260510074342 | 62 | 190 | 2.0 | 5.0 | 0.00 | 0.00 | 0.00 | 67 | 1012.4 |
| 20260510072842 | 62 | 190 | 1.0 | 5.0 | 0.00 | 0.00 | 0.00 | 66 | 1012.4 |
| 20260510065844 | 62 | 190 | 1.0 | 5.0 | 0.00 | 0.00 | 0.00 | 67 | 1012.4 |
| 20260510064341 | 63 | 190 | 1.0 | 5.0 | 0.00 | 0.00 | 0.00 | 65 | 1012.3 |
| 20260510062843 | 62 | 178 | 2.0 | 5.0 | 0.00 | 0.00 | 0.00 | 66 | 1012.2 |
| 20260510061342 | 62 | 186 | 2.0 | 5.0 | 0.00 | 0.00 | 0.00 | 69 | 1012.3 |
| 20260510055906 | 63 | 191 | 0.0 | 5.0 | 0.00 | 0.00 | 0.00 | 67 | 1012.4 |
| 20260510054406 | 63 | 181 | 3.0 | 5.0 | 0.00 | 0.00 | 0.00 | 67 | 1012.3 |
| 20260510052905 | 64 | 191 | 0.0 | 5.0 | 0.00 | 0.00 | 0.00 | 63 | 1012.3 |
| 20260510051405 | 64 | 183 | 1.0 | 5.0 | 0.00 | 0.00 | 0.00 | 63 | 1012.2 |
| 20260510045906 | 65 | 183 | 0.0 | 5.0 | 0.00 | 0.00 | 0.00 | 61 | 1012.1 |
| 20260510044406 | 66 | 173 | 1.0 | 5.0 | 0.00 | 0.00 | 0.00 | 59 | 1012.0 |
| 20260510042905 | 66 | 189 | 3.0 | 5.0 | 0.00 | 0.00 | 0.00 | 59 | 1012.0 |
| 20260510035906 | 66 | 186 | 2.0 | 5.0 | 0.00 | 0.00 | 0.00 | 60 | 1012.0 |
| 20260510034406 | 65 | 182 | 2.0 | 5.0 | 0.00 | 0.00 | 0.00 | 62 | 1012.1 |
| 20260510032905 | 63 | 182 | 2.0 | 5.0 | 0.00 | 0.00 | 0.00 | 67 | 1012.1 |
| 20260510031405 | 62 | 189 | 3.0 | 5.0 | 0.00 | 0.00 | 0.00 | 71 | 1012.1 |
| 20260510025904 | 63 | 186 | 0.0 | 5.0 | 0.00 | 0.00 | 0.00 | 71 | 1011.9 |
| 20260510024405 | 63 | 186 | 0.0 | 5.0 | 0.00 | 0.00 | 0.00 | 69 | 1011.8 |
| 20260510022904 | 64 | 186 | 0.0 | 5.0 | 0.00 | 0.00 | 0.00 | 68 | 1011.6 |
| 20260510021407 | 65 | 186 | 0.0 | 5.0 | 0.00 | 0.00 | 0.00 | 65 | 1011.6 |
| 20260510015905 | 66 | 186 | 0.0 | 5.0 | 0.00 | 0.00 | 0.00 | 62 | 1011.2 |
| 20260510014405 | 67 | 186 | 0.0 | 5.0 | 0.00 | 0.00 | 0.00 | 60 | 1011.2 |
| 20260510012904 | 69 | 186 | 0.0 | 5.0 | 0.00 | 0.00 | 0.00 | 57 | 1010.9 |
| 20260510011406 | 70 | 186 | 1.0 | 5.0 | 0.00 | 0.00 | 0.00 | 54 | 1010.8 |
| 20260510005905 | 72 | 188 | 0.0 | 5.0 | 0.00 | 0.00 | 0.00 | 51 | 1010.7 |
| 20260510004405 | 72 | 180 | 1.0 | 5.0 | 0.00 | 0.00 | 0.00 | 50 | 1010.5 |
| 20260510002904 | 73 | 190 | 2.0 | 5.0 | 0.00 | 0.00 | 0.00 | 48 | 1010.2 |
| 20260510001406 | 74 | 171 | 1.0 | 5.0 | 0.00 | 0.00 | 0.00 | 47 | 1010.1 |
| 20260509235905 | 75 | 205 | 0.0 | 5.0 | 0.00 | 0.00 | 0.00 | 45 | 1009.9 |
| 20260509234405 | 77 | 202 | 1.0 | 5.0 | 0.00 | 0.00 | 0.00 | 42 | 1009.7 |
| 20260509232904 | 79 | 207 | 2.0 | 5.0 | 0.00 | 0.00 | 0.00 | 39 | 1009.9 |
| 20260509231404 | 80 | 202 | 0.0 | 5.0 | 0.00 | 0.00 | 0.00 | 38 | 1009.9 |
| 20260509225905 | 81 | 248 | 0.0 | 5.0 | 0.00 | 0.00 | 0.00 | 37 | 1009.9 |
| 20260509224406 | 81 | 185 | 0.0 | 5.0 | 0.00 | 0.00 | 0.00 | 40 | 1010.0 |
| 20260509222905 | 81 | 209 | 1.0 | 5.0 | 0.00 | 0.00 | 0.00 | 39 | 1009.9 |
| 20260509215904 | 82 | 160 | 0.0 | 5.0 | 0.00 | 0.00 | 0.00 | 32 | 1009.9 |
| 20260509214404 | 83 | 5 | 2.0 | 5.0 | 0.00 | 0.00 | 0.00 | 36 | 1009.8 |